Location: Hains Lake
(37.8540°N, 99.8578°W)
Time: 23:03:47
(UTC+00:00)

deb Explorer IX - Pass Details

Date: 19 April 2021
Orbit: 541 x 1098 km, 38.8° (Epoch: 13 May)

Event Time Altitude Azimuth Distance (km) Brightness Sun altitude
Rises 13:00:45 0° 226° (SW) 2,696 ? 11.3°
Reaches altitude 10° 13:03:03 10° 217° (SW) 1,835 ? 11.7°
Maximum altitude 13:06:50 34° 151° (SSE) 981 ? 12.5°
Drops below altitude 10° 13:11:00 10° 87° (E) 2,031 ? 13.3°
Sets 13:13:41 0° 78° (ENE) 3,034 ? 13.8°
